Wilmington, OH

10:58 AM EDT on July 21, 2017 (GMT -0400)
Airborne

Weather History for KILN - March, 2013

Change the Weather History Date:

Wednesday, March 6, 2013

  Actual Average (KFFO) Record (KFFO)
Temperature  
Mean Temperature 30 °F -  
Max Temperature 32 °F 43 °F 64 °F (2009)
Min Temperature 28 °F 24 °F 5 °F (2015)
Degree Days  
Heating Degree Days 35    
Moisture  
Dew Point 28 °F    
Average Humidity 93    
Maximum Humidity 100    
Minimum Humidity 85    
Precipitation  
Precipitation 0.35 in - - ()
Sea Level Pressure  
Sea Level Pressure 29.97 in    
Wind  
Wind Speed 13 mph (NW)    
Max Wind Speed 18 mph    
Max Gust Speed 25 mph    
Visibility 3 miles    
Events Fog , Snow    
Averages and records for this station are not official NWS values.
T = Trace of Precipitation, MM = Missing Value Source: NWS Daily Summary

Daily Weather History Graph

Daily Weather History Graph

Search for Another Location

Airport or City:

Trip Planner

Search our weather history database for the weather conditions in past years. The results will help you decide how hot, cold, wet, or windy it might be!

Date:

Astronomy

Mar. 06, 2013 Rise Set
Actual Time 7:00 AM EST 6:33 PM EST
Civil Twilight 6:33 AM EST 6:59 PM EST
Nautical Twilight 6:02 AM EST 7:31 PM EST
Astronomical Twilight 5:31 AM EST 8:02 PM EST
Moon 3:07 AM EST (3/6) 1:15 PM EST (3/6)
Length of Visible Light 12h 26m
Length of Day
11h 32m
Waning Crescent, 30% of the Moon is Illuminated
Mar 6
Waning Crescent
Mar 11
New
Mar 19
First Quarter
Mar 27
Full
Apr 3
Last Quarter

Hourly Weather History & Observations

Time (EST) Temp. Windchill Dew Point Humidity Pressure Visibility Wind Dir Wind Speed Gust Speed Precip Events Conditions
12:54 AM 32.0 °F 23.0 °F 30.9 °F 96% 29.65 in 0.5 mi West 11.5 mph - 0.15 in Fog , Snow Snow
1:54 AM 32.0 °F 23.0 °F 30.9 °F 96% 29.67 in 0.8 mi WNW 11.5 mph - 0.12 in Snow Light Snow
2:17 AM 30.2 °F 21.3 °F 30.2 °F 100% 29.61 in 0.8 mi NW 10.4 mph - 0.03 in Snow Light Snow
2:35 AM 30.2 °F 20.8 °F 30.2 °F 100% 29.61 in 1.2 mi WNW 11.5 mph - 0.04 in Snow Light Snow
2:54 AM 30.0 °F 19.5 °F 28.9 °F 96% 29.68 in 1.0 mi NW 13.8 mph - 0.04 in Snow Light Snow
3:43 AM 28.4 °F 17.5 °F 28.4 °F 100% 29.63 in 0.8 mi NW 13.8 mph - 0.02 in Snow Light Snow
3:54 AM 28.9 °F 18.2 °F 28.0 °F 96% 29.71 in 1.0 mi NW 13.8 mph - 0.02 in Snow Light Snow
4:02 AM 28.4 °F 17.0 °F 28.4 °F 100% 29.64 in 0.8 mi NW 15.0 mph - 0.00 in Snow Light Snow
4:25 AM 28.4 °F 17.5 °F 28.4 °F 100% 29.65 in 1.0 mi NW 13.8 mph 23.0 mph 0.01 in Snow Light Snow
4:42 AM 28.4 °F 17.0 °F 28.4 °F 100% 29.66 in 1.5 mi NW 15.0 mph - 0.01 in Snow Light Snow
4:54 AM 28.9 °F 17.7 °F 28.0 °F 96% 29.74 in 1.5 mi NNW 15.0 mph - 0.01 in Snow Light Snow
5:54 AM 28.9 °F 16.9 °F 28.0 °F 96% 29.79 in 1.2 mi NNW 17.3 mph - 0.00 in Snow Light Snow
6:49 AM 28.4 °F 16.6 °F 28.4 °F 100% 29.77 in 3.0 mi NNW 16.1 mph 25.3 mph 0.01 in Snow Light Snow
6:54 AM 28.9 °F 17.3 °F 28.0 °F 96% 29.85 in 4.0 mi NNW 16.1 mph 25.3 mph 0.01 in Snow Light Snow
7:54 AM 28.9 °F 16.5 °F 28.0 °F 96% 29.91 in 3.0 mi NNW 18.4 mph - 0.00 in   Overcast
8:54 AM 28.9 °F 17.3 °F 28.0 °F 96% 29.98 in 5.0 mi NNW 16.1 mph - N/A   Overcast
9:54 AM 28.9 °F 18.2 °F 28.0 °F 96% 30.03 in 4.0 mi NNW 13.8 mph - N/A   Overcast
10:54 AM 28.9 °F 16.9 °F 28.0 °F 96% 30.07 in 4.0 mi NNW 17.3 mph - N/A   Overcast
11:54 AM 28.9 °F 17.7 °F 28.0 °F 96% 30.11 in 4.0 mi NNW 15.0 mph - N/A   Overcast
12:54 PM 30.0 °F 19.5 °F 28.0 °F 92% 30.13 in 4.0 mi NW 13.8 mph 23.0 mph N/A   Overcast
1:54 PM 30.9 °F 19.8 °F 28.0 °F 89% 30.14 in 5.0 mi NW 16.1 mph - N/A   Overcast
2:54 PM 30.9 °F 21.2 °F 28.0 °F 89% 30.17 in 5.0 mi NW 12.7 mph - N/A   Overcast
3:54 PM 32.0 °F 24.2 °F 28.0 °F 85% 30.19 in 4.0 mi NW 9.2 mph - N/A   Overcast
4:11 PM 30.2 °F 20.2 °F 28.4 °F 93% 30.11 in 4.0 mi NW 12.7 mph - N/A   Overcast
4:54 PM 32.0 °F 22.5 °F 28.0 °F 85% 30.21 in 4.0 mi NW 12.7 mph - N/A   Overcast
5:54 PM 30.9 °F 23.5 °F 28.0 °F 89% 30.23 in 3.0 mi NW 8.1 mph - N/A   Overcast
6:54 PM 30.9 °F 22.2 °F 28.0 °F 89% 30.26 in 4.0 mi WNW 10.4 mph - N/A   Overcast
7:54 PM 30.9 °F 22.8 °F 27.0 °F 85% 30.27 in 4.0 mi WNW 9.2 mph - N/A   Overcast
8:54 PM 30.9 °F 23.5 °F 27.0 °F 85% 30.29 in 5.0 mi WNW 8.1 mph - N/A   Overcast
9:54 PM 30.0 °F 22.4 °F 27.0 °F 88% 30.29 in 6.0 mi WNW 8.1 mph - N/A   Overcast
10:40 PM 30.2 °F 21.9 °F 26.6 °F 86% 30.21 in 5.0 mi West 9.2 mph - N/A   Overcast
10:54 PM 30.0 °F 22.4 °F 27.0 °F 88% 30.30 in 5.0 mi WNW 8.1 mph - N/A   Overcast
11:27 PM 30.2 °F 22.6 °F 26.6 °F 86% 30.21 in 5.0 mi WNW 8.1 mph - N/A   Overcast
11:54 PM 30.0 °F 22.4 °F 27.0 °F 88% 30.29 in 5.0 mi WNW 8.1 mph - N/A   Overcast